FW0554 Weather Reports


Display with metric or nautical units.
time (UTC)temp
F
wind
direction
speed
MPH
gust
MPH
rain 1hr
in
rain 24hr
in
rain mn
in
humidity
%
barometer
mb
20260906120146 74 21 0.0 0.0 0.00 0.04 0.00 92 1000.7
20260906115147 74 55 0.0 0.0 0.00 0.04 0.00 92 1000.4
20260906114624 74 65 0.0 0.0 0.00 0.04 0.00 93 1000.4
20260906113144 74 91 0.0 0.0 0.00 0.04 0.00 93 1000.2
20260906112144 73 64 0.0 0.0 0.00 0.04 0.00 93 1000.1
20260906111145 74 61 0.0 0.0 0.00 0.04 0.00 93 999.9
20260906110626 73 30 0.0 0.0 0.00 0.04 0.00 93 999.7
20260906105621 73 101 0.0 0.0 0.00 0.04 0.00 93 999.8
20260906104138 73 87 0.0 0.0 0.00 0.04 0.00 93 999.7
20260906103615 73 87 0.0 0.0 0.00 0.04 0.00 93 999.6
20260906102136 73 81 0.0 0.0 0.00 0.04 0.00 94 999.6
20260906101133 73 72 0.0 0.0 0.00 0.04 0.00 94 999.5
20260906100133 73 41 0.0 0.0 0.00 0.04 0.00 94 999.4
20260906095614 73 29 0.0 0.0 0.00 0.04 0.00 94 999.2
20260906094132 73 12 0.0 0.0 0.00 0.04 0.00 94 998.9
20260906093130 73 38 0.0 0.0 0.00 0.04 0.00 94 998.9
20260906092131 73 83 0.0 0.0 0.00 0.04 0.00 94 998.8
20260906091131 73 72 0.0 0.0 0.00 0.04 0.00 94 998.7
20260906091103 73 47 0.0 0.0 0.00 0.04 0.00 94 998.7
20260906085126 73 53 0.0 0.0 0.00 0.04 0.00 94 998.6
20260906084126 73 49 0.0 0.0 0.00 0.04 0.00 94 998.4
20260906083126 73 48 0.0 0.0 0.00 0.04 0.00 94 998.6
20260906082606 73 49 0.0 0.0 0.00 0.04 0.00 94 998.3
20260906081608 73 48 0.0 0.0 0.00 0.04 0.00 94 998.3
20260906080128 73 48 0.0 0.0 0.00 0.04 0.00 94 998.4
20260906075615 73 48 0.0 0.0 0.00 0.04 0.00 93 998.1
20260906074118 73 48 0.0 0.0 0.00 0.04 0.00 93 998.0
20260906073117 73 48 0.0 0.0 0.00 0.04 0.00 93 997.9
20260906072113 73 48 0.0 0.0 0.00 0.04 0.00 93 997.9
20260906071114 73 48 0.0 0.0 0.00 0.04 0.00 93 998.0
20260906070112 73 48 0.0 0.0 0.00 0.04 0.00 92 998.0
20260906065110 74 48 0.0 0.0 0.00 0.04 0.00 92 998.1
20260906064106 74 48 0.0 0.0 0.00 0.04 0.00 92 998.1
20260906063106 74 48 0.0 0.0 0.00 0.04 0.00 92 998.2
20260906062104 74 48 0.0 0.0 0.00 0.04 0.00 92 998.2
20260906061103 74 48 0.0 0.0 0.00 0.04 0.00 92 998.3
20260906055543 75 48 0.0 0.0 0.00 0.04 0.00 91 998.5
20260906054102 75 48 0.0 0.0 0.00 0.04 0.00 91 998.8
20260906053540 75 48 0.0 0.0 0.00 0.04 0.00 91 998.9
20260906052539 75 48 0.0 0.0 0.00 0.04 0.00 91 998.8
20260906051101 75 48 0.0 0.0 0.00 0.04 0.00 90 998.8
20260906050101 75 48 0.0 0.0 0.00 0.04 0.00 90 998.9
20260906045101 75 48 0.0 0.0 0.00 0.04 0.00 90 999.0
20260906044103 76 48 0.0 0.0 0.00 0.04 0.00 90 999.1
20260906043101 76 48 0.0 0.0 0.00 0.04 0.00 90 999.2
20260906042101 76 48 0.0 0.0 0.00 0.04 0.00 90 999.1
20260906041101 76 48 0.0 0.0 0.00 0.04 0.00 90 999.2
20260906040101 75 48 0.0 0.0 0.00 0.04 0.00 90 999.4
20260906035100 75 48 0.0 0.0 0.00 0.04 0.04 90 999.0
20260906034102 75 48 0.0 0.0 0.00 0.04 0.04 90 999.3
20260906033101 76 48 0.0 0.0 0.00 0.04 0.04 90 999.2
20260906032102 76 48 0.0 0.0 0.00 0.04 0.04 91 999.1
20260906031104 75 48 0.0 0.0 0.00 0.04 0.04 91 999.3
20260906030101 75 66 0.0 0.0 0.00 0.04 0.04 91 999.1
20260906025103 75 66 0.0 0.0 0.00 0.04 0.04 91 999.1
20260906024101 76 336 0.0 0.0 0.00 0.04 0.04 91 999.0
20260906023541 76 336 0.0 0.0 0.00 0.05 0.04 91 999.1
20260906022533 76 336 0.0 0.0 0.00 0.05 0.04 91 999.0
20260906021535 76 336 0.0 0.0 0.00 0.05 0.04 91 999.1
20260906020100 76 285 0.0 0.0 0.00 0.05 0.04 91 999.0
20260906015056 76 285 0.0 0.0 0.00 0.05 0.04 91 999.1
20260906014054 77 285 0.0 0.0 0.00 0.05 0.04 91 999.0
20260906013052 77 285 0.0 0.0 0.00 0.05 0.04 90 998.9
20260906012530 77 285 0.0 0.0 0.00 0.05 0.04 90 998.8
20260906011051 77 285 0.0 0.0 0.00 0.05 0.04 90 998.9
20260906010049 77 285 0.0 0.0 0.00 0.05 0.04 89 998.7
20260906005526 77 285 0.0 0.0 0.00 0.05 0.04 89 998.4
20260906004044 77 285 0.0 0.0 0.00 0.05 0.04 88 998.4
20260906003044 78 285 0.0 0.0 0.00 0.05 0.04 88 998.6
20260906002042 78 285 0.0 0.0 0.00 0.05 0.04 88 998.4
20260906001039 78 285 0.0 0.0 0.00 0.05 0.04 87 998.3
20260906000036 78 285 0.0 0.0 0.00 0.05 0.04 87 998.1
20260905235036 78 285 0.0 0.0 0.00 0.05 0.04 87 997.8
20260905234035 78 285 0.0 0.0 0.00 0.05 0.04 86 997.7
20260905233034 78 285 0.0 0.0 0.00 0.05 0.04 86 997.6
20260905232031 78 285 0.0 0.0 0.00 0.05 0.04 86 997.6
20260905231030 79 285 0.0 0.0 0.00 0.05 0.04 87 997.2
20260905230032 79 285 0.0 0.0 0.00 0.05 0.04 87 997.2
20260905225031 78 285 0.0 0.0 0.00 0.05 0.04 87 997.0
20260905224522 78 285 0.0 0.0 0.00 0.05 0.04 87 997.0
20260905223029 78 285 0.0 0.0 0.00 0.05 0.04 88 997.1
20260905222030 78 285 0.0 0.0 0.00 0.05 0.04 88 997.3
20260905221029 78 285 0.0 0.0 0.00 0.05 0.04 89 997.5
20260905220029 78 285 0.0 0.0 0.00 0.05 0.04 88 997.7
20260905215029 78 279 0.0 0.0 0.00 0.05 0.04 88 997.6
20260905214030 78 18 0.0 0.0 0.00 0.05 0.04 88 997.1
20260905213030 78 21 0.0 0.0 0.00 0.05 0.04 88 997.1
20260905212029 78 22 0.0 0.0 0.00 0.05 0.04 88 997.0
20260905211029 78 25 0.0 0.0 0.00 0.05 0.04 88 996.9
20260905210504 78 26 0.0 0.0 0.04 0.05 0.04 87 996.9
20260905205026 78 30 0.0 0.0 0.04 0.05 0.04 86 996.9
20260905204512 78 30 0.0 0.0 0.04 0.05 0.04 84 996.9
20260905203026 79 30 0.0 0.0 0.04 0.05 0.04 82 997.1
20260905202025 80 27 0.0 0.0 0.04 0.05 0.04 79 997.1
20260905201025 82 27 0.0 2.0 0.04 0.05 0.03 74 997.1
20260905200024 83 326 2.0 10.0 0.00 0.01 0.00 68 997.7
20260905195025 83 35 3.0 10.0 0.00 0.01 0.00 67 998.3
20260905194023 85 339 3.0 9.0 0.00 0.01 0.00 63 998.0
20260905193024 89 50 5.0 14.0 0.00 0.01 0.00 56 998.0
20260905192024 96 123 5.0 25.0 0.00 0.01 0.00 47 997.7
20260905191022 98 332 3.0 9.0 0.00 0.01 0.00 41 996.8
20260905190023 100 322 2.0 9.0 0.00 0.01 0.00 41 996.7
20260905185018 100 357 3.0 10.0 0.00 0.01 0.00 37 996.5
20260905184019 103 257 2.0 8.0 0.00 0.01 0.00 37 996.8
20260905183016 103 341 3.0 10.0 0.00 0.01 0.00 38 996.5
20260905182016 102 258 2.0 7.0 0.00 0.01 0.00 40 996.8
20260905181015 101 293 2.0 7.0 0.00 0.01 0.00 41 997.2
20260905180022 100 2 2.0 10.0 0.00 0.01 0.00 41 997.3
20260905175017 100 316 2.0 6.0 0.00 0.01 0.00 41 997.6
20260905174014 101 259 3.0 10.0 0.00 0.01 0.00 41 998.0
20260905173014 101 125 3.0 9.0 0.00 0.01 0.00 41 998.2
20260905172014 100 301 2.0 7.0 0.00 0.01 0.00 41 998.4
20260905171013 100 341 3.0 11.0 0.00 0.01 0.00 42 998.6
20260905170012 100 224 3.0 8.0 0.00 0.01 0.00 43 998.7
20260905165011 99 314 2.0 8.0 0.00 0.01 0.00 44 998.8
20260905164010 98 44 1.0 6.0 0.00 0.01 0.00 44 998.8
20260905163009 98 346 2.0 7.0 0.00 0.01 0.00 46 998.9
20260905162445 98 237 2.0 7.0 0.00 0.01 0.00 46 999.0
20260905161008 97 310 2.0 6.0 0.00 0.01 0.00 47 999.2
20260905160918 97 328 3.0 9.0 0.00 0.01 0.00 45 999.4
20260905155008 97 328 2.0 9.0 0.00 0.01 0.00 49 999.4
20260905154007 96 266 2.0 8.0 0.00 0.01 0.00 50 999.6
20260905153941 95 304 2.0 6.0 0.00 0.01 0.00 52 999.8
20260905152007 95 308 3.0 7.0 0.00 0.01 0.00 52 999.6
20260905151005 94 320 2.0 7.0 0.00 0.01 0.00 53 999.8
20260905150434 93 328 2.0 8.0 0.00 0.01 0.00 54 999.8
20260905145005 92 307 1.0 7.0 0.00 0.01 0.00 57 999.7
20260905144003 92 306 2.0 6.0 0.00 0.01 0.00 56 999.8
20260905143003 91 268 1.0 7.0 0.00 0.01 0.00 60 999.9
20260905142004 90 329 2.0 4.0 0.00 0.01 0.00 62 999.7
20260905141002 89 257 2.0 6.0 0.00 0.01 0.00 64 999.7
20260905140447 89 325 1.0 4.0 0.00 0.01 0.00 65 999.7
20260905135442 88 272 2.0 6.0 0.00 0.01 0.00 67 999.9
20260905134001 87 270 2.0 7.0 0.00 0.01 0.00 68 999.9
20260905133002 87 313 1.0 6.0 0.00 0.01 0.00 70 999.8
20260905132002 86 297 2.0 7.0 0.00 0.01 0.00 72 999.9
20260905131001 85 307 2.0 5.0 0.00 0.01 0.00 74 999.9
20260905130451 84 349 2.0 6.0 0.00 0.01 0.00 75 999.9
20260905125002 83 337 2.0 9.0 0.00 0.01 0.00 77 1000.1
20260905124000 82 255 2.0 6.0 0.00 0.01 0.00 79 999.9
20260905123000 81 293 1.0 6.0 0.00 0.01 0.00 81 999.9
20260905122001 80 276 1.0 7.0 0.00 0.01 0.00 82 999.9
20260905121442 79 329 0.0 0.0 0.00 0.01 0.00 85 999.9